Find Starlink 32091

NORAD ID: 59684 Int'l Des: 2024-086 Owner: SPXS Country: US Constellation: starlink operational
LEOCIRCULAR

リアルタイム位置

3D地球を読み込み中...

Starlink 32091について

説明を読み込み中...

次回通過

Passes for default location (London). Set your location on the main map for personalized predictions.

高度履歴

Loading altitude history...

軌道要素

1 59684U 24086C 26125.34563407 -.00000076 00000-0 67694-5 0 9991
2 59684 43.0008 92.4350 0000792 190.4229 169.6607 15.27575078112878
Epoch: May 5, 2026 • Age: 15 hours

現在のステータス

高度 495.1 km
速度 7.62 km/s
衛星直下点 -39.78°S, 167.05°E
打ち上げ日 May 8, 2024
運用期間 1.9 years
タイプ internet

技術仕様

分類 Payload
質量 730.00 kg
乾燥質量 700.00 kg
総質量 730.00 kg
長さ 0.30 m
直径 4.10 m
スパン 29.00 m
形状 Box + pan
製造者 SPXS
バスタイプ Starlink V2M
フェーズステータス In Orbit
所有者/国 SPXS/US

Most Searched